{"data":{"norad_id":56921,"epoch":"2026-09-20T21:09:47.231424Z","epoch_age_seconds":84380,"freshness":"FRESH","line1":"1 56921U 23083AX  26263.88179666  .00001705  00000+0  71461-4 0  9994","line2":"2 56921  43.0039  48.0423 0001556 266.7607  93.3066 15.27591736181650","mean_motion":15.27591736,"eccentricity":0.0001556,"inclination_deg":43.0039,"raan_deg":48.0423,"arg_perigee_deg":266.7607,"mean_anomaly_deg":93.3066,"bstar":7.1461e-5,"rev_number":18165,"period_min":94.266024492293,"perigee_km":481.94635937012,"apogee_km":484.08154954715,"semimajor_km":6861.1509544586,"source":"CELESTRAK","updated_at":"2026-09-21T09:00:33.529340Z"}}